Regional Weather Roundup
Issued by NWS

Home | Current Version | Previous Version | Graphics & Text | Print | Product List | Glossary On
Versions: 1 2 3 4 5 6 7 8 9 10 11 12 13 14 15 16 17 18 19 20 21 22 23 24 25 26 27 28 29 30 31 32 33 34 35 36 37 38 39 40 41 42 43 44 45 46 47 48 49 50
000
ASUS45 KSLC 291110
RWRUT

UTAH REGIONAL WEATHER ROUNDUP
NATIONAL WEATHER SERVICE SALT LAKE CITY UT
400 AM MST THU JAN 29 2015

UTZ001>011-023>025-291200-

NORTHERN UTAH

CITY           SKY/WX    TMP DP  RH WIND       PRES   REMARKS
BRIGHAM CITY   CLEAR     30  29  94 SE5       30.39S WCI  26
HILL AFB       PTCLDY    38  33  83 E16       30.36F WCI  29
LOGAN          CLOUDY    34  33  96 N6        30.40F WCI  29
OGDEN          PTCLDY    33  32  96 CALM      30.37S
PROVO AIRPORT  PTCLDY    32  28  86 N3        30.38F
SALT LAKE CITY PTCLDY    31  29  92 S6        30.38S WCI  25
VERNAL         CLOUDY    35  28  75 CALM      30.38R
WENDOVER       CLOUDY    37  30  75 CALM      30.38S
HEBER CITY     CLEAR     25  23  93 CALM      30.39S
WEST JORDAN    CLEAR     34  34 100 W5        30.39S WCI  30

$$

UTZ012>022-026-027-291200-

SOUTHERN/CENTRAL UTAH

CITY           SKY/WX    TMP DP  RH WIND       PRES   REMARKS
BLANDING       CLOUDY    42  30  63 N5        30.36F
BRYCE CANYON   CLOUDY    30  27  88 NE8       30.33F WCI  22
CEDAR CITY     CLOUDY    33  30  88 SW3       30.29F
DELTA          MOCLDY    32  31  96 CALM      30.34F
HANKSVILLE     CLOUDY    32  30  93 CALM      30.34S
MILFORD        CLOUDY    31  28  89 N5        30.30F WCI  26
MOAB/CYNLANDS  CLEAR     28  26  92 CALM      30.31S
PRICE          MOCLDY    36  26  67 CALM      30.33R
ST GEORGE      SUNNY     46  39  76 SE5       30.24F
KANAB            N/A     41  32  70 NE3       30.30S

$$

REGIONAL REPORTS     COLORADO/ARIZONA

CITY           SKY/WX    TMP DP  RH WIND       PRES   REMARKS
CRAIG, CO      CLOUDY    32  30  92 CALM      30.38S
GRAND JUNCTION MOCLDY    34  27  75 SE9       30.34S WCI  27
RIFLE          PTCLDY    31  26  82 E5        30.37S WCI  26
MONTROSE       CLOUDY    30  25  81 SE7       30.37S WCI  23
CORTEZ         CLEAR     30  26  85 E3        30.31F
PAGE, AZ       NOT AVBL
GRAND CANYON   MOCLDY    41  30  65 E8        30.27S
KINGMAN        CLOUDY    48  42  80 E7        30.17F
FLAGSTAFF      CLOUDY    32  26  78 CALM      30.27F

$$

REGIONAL REPORTS    NEVADA/IDAHO/WYOMING

CITY           SKY/WX    TMP DP  RH WIND       PRES   REMARKS
LAS VEGAS, NV  CLOUDY    55  45  68 S8        30.14R
ELY            PTCLDY    23  22  96 SE8       30.34F WCI  14
ELKO           PTCLDY    26  23  88 W3        30.35S
POCATELLO, ID  CLOUDY    32  32 100 NE3       30.45S FOG
BURLEY         CLOUDY    36  33  89 NE6       30.42F WCI  31
EVANSTON, WY   CLOUDY    31  28  89 E6        30.40S WCI  25
ROCK SPRINGS   CLOUDY    32  28  85 CALM      30.41R
KEMMERER       CLEAR     23  21  93 N8        30.41S WCI  14

$$


USA.gov is the U.S. government's official web portal to all federal, state and local government web resources and services.